Location: *
(60.1759°S, 155.0663°W)
Time: 13:24:45
(UTC+00:00)

NOSS 3-1 (A) - Pass Details

Date: 17 September 2019
Orbit: 772 x 1440 km, 63.4° (Epoch: 17 October)

Event Time Altitude Azimuth Distance (km) Brightness Sun altitude
Rises 12:12:23 0° 248° (WSW) 4,179 6.7 -27.8°
Reaches altitude 10° 12:15:22 10° 247° (WSW) 3,114 6.0 -27.6°
Maximum altitude 12:22:45 82° 158° (SSE) 1,055 3.6 -27.1°
Drops below altitude 10° 12:28:57 10° 69° (ENE) 2,628 5.9 -26.6°
Sets 12:31:17 0° 68° (ENE) 3,492 6.6 -26.5°
